Regional Weather Roundup
Issued by NWS Spokane, WA

Home | Current Version | Previous Version | Text Only | Print | Product List | Glossary On
Versions: 1 2 3 4 5 6 7 8 9 10 11 12 13 14 15 16 17 18 19 20 21 22 23 24 25 26 27 28 29 30 31 32 33 34 35 36 37 38 39 40 41 42 43 44 45 46 47 48 49 50
791
NZUS01 KOTX 100605
RWROTX
EASTERN WASHINGTON/NORTHERN IDAHO ROUNDUP
NATIONAL WEATHER SERVICE, SPOKANE WA
1000 PM PST TUE FEB 09 2016

Note: "fair" indicated few or no clouds below 12,000 feet with no
significant weather and/or obstructions to visibility.

...NORTHEAST WASHINGTON AND NORTHERN IDAHO PANHANDLE...

CITY           SKY/WX    TMP DP  RH WIND       PRES   REMARKS
SPOKANE INTL   MOCLDY    34  30  85 SW5       30.24R WCI  30
SPOKANE DOWNTO PTCLDY    37  32  82 CALM      30.26R
COEUR D ALENE  CLEAR     30  27  86 CALM      30.23R
DEER PARK      PTCLDY    29  28  96 NW3       30.25R
SANDPOINT      CLEAR     28  28 100 CALM      30.26F

...SOUTHEAST WASHINGTON AND SOUTHERN IDAHO PANHANDLE...

CITY           SKY/WX    TMP DP  RH WIND       PRES   REMARKS
WALLA WALLA    PTCLDY    38  34  85 E9        30.26S
PULLMAN/MOSCOW PTCLDY    37  33  85 VRB3      30.25F
LEWISTON       PTCLDY    45  33  63 S10       30.25F
LOWELL           N/A     34  32  92 NW3       30.35R

...COLUMBIA BASIN...

CITY           SKY/WX    TMP DP  RH WIND       PRES   REMARKS
EPHRATA        PTCLDY    37  31  78 NW6       30.25S
MOSES LAKE     PTCLDY    35  31  85 CALM      30.27S
TRI CITIES     CLEAR     32  28  85 N3        30.30R
HERMISTON      CLEAR     31  30  96 SE5       30.28R WCI  26
PENDLETON      PTCLDY    33  32  96 S3        30.26S

...EAST SLOPES CASCADES...

CITY           SKY/WX    TMP DP  RH WIND       PRES   REMARKS
THE DALLES     MOCLDY    39  34  82 E3        30.29S
YAKIMA         PTCLDY    34  28  79 W6        30.28S WCI  29
ELLENSBURG     PTCLDY    29  25  85 CALM      30.25F
WENATCHEE      CLEAR     34  29  82 CALM      30.27S
OMAK           PTCLDY    25  24  96 CALM      30.29F

...SOUTHERN BRITISH COLUMBIA...

CITY           SKY/WX    TMP DP  RH WIND       PRES   REMARKS

...WESTERN MONTANA...

CITY           SKY/WX    TMP DP  RH WIND       PRES   REMARKS
MISSOULA       CLEAR     29  26  89 CALM      30.29S

...NEIGHBORING CITIES...

CITY           SKY/WX    TMP DP  RH WIND       PRES   REMARKS
SEATTLE        CLOUDY    56  38  50 SE6       30.11F



USA.gov is the U.S. government's official web portal to all federal, state and local government web resources and services.